Location: Woodhurst
(52.3667°N, 0.0667°W)
Time: 11:29:49
(UTC+00:00)

Cosmos 1536 - Pass Details

Date: 19 May 2025
Orbit: 495 x 518 km, 82.5° (Epoch: 11 June)

Event Time Altitude Azimuth Distance (km) Brightness Sun altitude
Rises 21:29:36 0° 353° (N) 2,645 7.5 -10.9°
Reaches altitude 10° 21:31:50 10° 1° (N) 1,749 6.3 -11.1°
Maximum altitude 21:35:30 43° 74° (ENE) 725 3.3 -11.4°
Enters shadow 21:38:01 18° 140° (SE) 1,302 4.1 -11.6°
